Tracking 21611 objects as of 22-Oct-2020
HD Live streaming from Space Station
objects crossing your sky now

RADUGA 17

Track RADUGA 17 now!
RADUGA 17 is classified as:


NORAD ID: 16250
Int'l Code: 1985-107A
Perigee: 35,778.2 km
Apogee: 35,866.9 km
Inclination: 13.0 °
Period: 1,437.6 minutes
Semi major axis: 42193 km
RCS: 3.981 m2 (large)
Launch date: November 15, 1985
Source: Commonwealth of Independent States (former USSR) (CIS)
Launch site: TYURATAM MISSILE AND SPACE COMPLEX (TTMTR)
aabbcc
Your satellite tracking list
Your tracking list is empty




NASA's NSSDC Master Catalog

Two Line Element Set (TLE):
1 16250U 85107A   20295.25776425 +.00000075 +00000-0 +00000-0 0  9993
2 16250 013.0103 334.5792 0010504 167.1237 175.1484 01.00169089130989
Source of the keplerian elements: AFSPC